Погода в Прошково

Беларусь     55°14′01″N   28°03′40″E
темп.,
°C
ветер,
м/с
пор.,
м/с
влажн.,
%
обл.,
%
осадки,
мм/ч
давл.,
гПа
погр.,
м
22 мая, вс
вс2200:00+9всв51098100 4.8 1000467
03:00+8всв51197100 5.7 1001610
06:00+8св61295100 1.2 1003710
09:00+9всв6108561 1.5 1005559
12:00+13св675830 0.0 10061715
15:00+14ссв6649100 0.0 10071967
18:00+13ссв465897 0.0 10081546
21:00+8ссв347041 0.0 101045
23 мая, пн
пн2300:00+5св3471100 0.0 101160
03:00+4ссв3370100 0.0 101232
06:00+3ссв34707 0.0 101378
09:00+9с34585 0.0 1013432
12:00+12с45502 0.0 10131422
15:00+14ссз354919 0.0 10131695
18:00+14с365997 0.0 10121834
21:00+12ссз2267100 0.0 101215
24 мая, вт
вт2400:00+10зсз337027 0.0 101342
03:00+7зсз34785 0.0 101444
06:00+6зсз36815 0.0 1014102
09:00+12зсз45675 0.0 1014367
12:00+16зсз44550 0.0 10131369
15:00+18з455114 0.0 10121965
18:00+18з35564 0.0 10121733
21:00+13зюз337249 0.0 101239
25 мая, ср
ср2500:00+13зюз367297 0.0 1013135
03:00+11зсз238066 0.0 101358
06:00+9з228476 0.0 101320
09:00+14зсз1169100 0.0 1013350
12:00+17зюз1258100 0.0 10131103
15:00+18зюз225394 0.0 10121531
18:00+19зюз125392 0.0 10111426
21:00+15юз1167100 0.0 101111
26 мая, чт
чт2600:00+14юв3473100 0.0 100969
03:00+13юв3783100 0.2 1006151
06:00+13ю4995100 1.6 1003417
09:00+12зюз5897100 6.9 1000752
12:00+11сз81392100 0.1 1002832
15:00+15зсз7107299 0.4 10021455
18:00+15зюз71075100 1.0 1001905
21:00+11з9168980 1.1 1003630